Content
SEND FEEDBACK

Daily
Averages
Monthly
Summary
United States of America

ANN ARBOR, MICHIGAN


Home > North America > United States > Michigan
Elevation: 759 feet     Latitude: 42 17N     Longitude: 083 43W

WEATHER
 
SELECT A DAY
Number of Records: 207,248;   Date Range: 1/1/95 - 10/29/14
 
SHARE

PRINT THIS DATA

[ ← Previous Day ]
WEATHER ALMANAC - FEBRUARY 1, 2013
[ Next Day → ]
[ °C ]   °F
Weather ElementAverageHighLow
Temperature14.5 °F18 °F (11:53 am)8.1 °F (7:53 pm)
Dewpoint7.7 °F12.9 °F (12:53 am)-0.4 °F (7:35 pm)
Humidity74.9 %88 % (12:53 am)62 % (4:53 pm)
Barometer30.12 in30.31 in (7:53 pm)29.88 in (12:51 am)
Wind Speed12.1 mph20.7 mph (10:29 am)
Wind Gust26.5 mph (1:16 pm)
Weather ElementAverage
Visibility6.5 mi
Wind DirectionW (266.5 °)

Weather ElementTotal
Precipitation---
Heating Degree Days52 (Base 65)
Averaged from 48 records on February 1, 2013
WEATHER CONDITIONS BREAKOUT
WIND DIRECTION BREAKOUT
WEATHER BY HOUR - FEBRUARY 1, 2013
[ °C ]   °F
Local TimeTemperatureDewpointHumidityBarometerVisibilityWind DirectionWind SpeedGust SpeedPrecipitationEventsConditions
12:51 AM15.8 °F12.2 °F86 %29.88 in0.8 miWNW (290°)6.9 mph0.00 inSnowLight Snow
12:53 AM16.0 °F12.9 °F88 %29.92 in1.0 miWNW (290°)6.9 mph0.00 inSnowLight Snow
1:02 AM15.8 °F12.2 °F86 %29.88 in2.0 miWest (270°)9.2 mph0.00 inSnowLight Snow
1:12 AM15.8 °F12.2 °F86 %29.89 in3.0 miWNW (290°)10.4 mph0.00 inSnowLight Snow
1:20 AM15.8 °F12.2 °F86 %29.89 in5.0 miWNW (290°)10.4 mph0.00 inSnowLight Snow
1:29 AM15.8 °F8.6 °F73 %29.89 in9.0 miWNW (290°)12.7 mph0.00 inOvercast
1:53 AM15.1 °F9.0 °F77 %29.95 in8.0 miWNW (290°)9.2 mph0.00 inOvercast
2:16 AM15.8 °F10.4 °F79 %29.91 in4.0 miWest (270°)11.5 mph0.00 inSnowLight Snow
2:53 AM16.0 °F10.9 °F81 %29.97 in3.0 miWest (280°)10.4 mph0.00 inSnowLight Snow
3:53 AM16.0 °F10.0 °F77 %30.00 in10.0 miWNW (290°)10.4 mph0.00 inOvercast
4:31 AM15.8 °F10.4 °F79 %29.97 in4.0 miWNW (290°)9.2 mph0.00 inSnowLight Snow
4:39 AM15.8 °F10.4 °F79 %29.98 in4.0 miWNW (290°)8.1 mph0.00 inSnowLight Snow
4:53 AM15.1 °F8.1 °F74 %30.03 in10.0 miWNW (300°)8.1 mph0.00 inOvercast
5:00 AM15.8 °F8.6 °F73 %29.99 in10.0 miWNW (290°)12.7 mphOvercast
5:39 AM15.8 °F8.6 °F73 %30.01 in10.0 miWest (280°)9.2 mph0.00 inScattered Clouds
5:53 AM14.0 °F7.0 °F74 %30.06 in10.0 miWest (280°)11.5 mph0.00 inPartly Cloudy
6:53 AM12.9 °F7.0 °F77 %30.10 in10.0 miWest (260°)6.9 mphMostly Cloudy
7:53 AM9.0 °F5.0 °F84 %30.14 in10.0 miWest (260°)8.1 mphPartly Cloudy
8:53 AM15.1 °F8.1 °F74 %30.17 in4.0 miWest (270°)8.1 mph0.00 inSnowLight Snow
8:57 AM15.8 °F8.6 °F73 %30.12 in1.8 miWest (280°)8.1 mph0.00 inSnowLight Snow
9:00 AM15.8 °F8.6 °F73 %30.12 in0.8 miWest (280°)9.2 mph0.00 inSnowLight Snow
9:03 AM15.8 °F10.4 °F79 %30.13 in0.5 miWest (270°)8.1 mph0.00 inSnowSnow
9:19 AM15.8 °F10.4 °F79 %30.13 in1.5 miWest (270°)8.1 mph0.00 inSnowLight Snow
9:34 AM14.0 °F10.4 °F86 %30.14 in0.8 miWSW (250°)16.1 mph0.00 inSnowLight Snow
10:03 AM14.0 °F8.6 °F79 %30.15 in2.0 miWest (260°)16.1 mph0.00 inSnowLight Snow
10:29 AM14.0 °F8.6 °F79 %30.17 in1.8 miWest (260°)20.7 mph0.00 inSnowLight Snow
10:53 AM14.0 °F9.0 °F80 %30.22 in1.2 miWest (260°)15.0 mph0.00 inSnowLight Snow
11:01 AM14.0 °F8.6 °F79 %30.17 in1.5 miWest (260°)15.0 mph0.00 inSnowLight Snow
11:22 AM15.8 °F8.6 °F73 %30.18 in2.5 miWest (260°)13.8 mph0.00 inSnowLight Snow
11:29 AM15.8 °F8.6 °F73 %30.18 in4.0 miWest (270°)13.8 mph0.00 inSnowLight Snow
11:53 AM18.0 °F10.0 °F71 %30.23 in10.0 miWest (260°)17.3 mph0.00 inOvercast
12:14 PM17.6 °F8.6 °F68 %30.18 in10.0 miWSW (250°)18.4 mphOvercast
12:53 PM17.1 °F9.0 °F71 %30.23 in5.0 miWest (270°)13.8 mph0.00 inSnowLight Snow
1:16 PM17.6 °F8.6 °F68 %30.19 in10.0 miWest (270°)20.7 mph26.5 mph0.00 inOvercast
1:50 PM17.6 °F8.6 °F68 %30.19 in10.0 miWest (270°)19.6 mph0.00 inOvercast
1:53 PM18.0 °F8.1 °F65 %30.23 in10.0 miWest (270°)18.4 mph0.00 inOvercast
2:53 PM16.0 °F7.0 °F68 %30.24 in9.0 miWSW (250°)17.3 mph0.00 inSnowLight Snow
3:53 PM15.1 °F5.0 °F64 %30.26 in10.0 miWSW (250°)20.7 mph0.00 inOvercast
4:53 PM14.0 °F3.0 °F62 %30.27 in10.0 miWest (260°)17.3 mphOvercast
5:22 PM12.2 °F3.2 °F67 %30.22 in10.0 miWSW (250°)15.0 mphOvercast
5:53 PM12.0 °F1.9 °F64 %30.28 in10.0 miWSW (250°)16.1 mphOvercast
6:53 PM10.9 °F1.9 °F67 %30.29 in10.0 miWest (260°)15.0 mphOvercast
7:35 PM8.6 °F-0.4 °F67 %30.24 in10.0 miWest (260°)11.5 mphScattered Clouds
7:53 PM8.1 °F1.0 °F73 %30.31 in10.0 miWSW (250°)9.2 mphClear
8:53 PM8.1 °F1.0 °F73 %30.29 in10.0 miSW (230°)5.8 mphClear
9:53 PM8.1 °F1.9 °F76 %30.28 in10.0 miSSW (210°)4.6 mphMostly Cloudy
10:53 PM10.9 °F3.9 °F73 %30.27 in10.0 miSSW (210°)8.1 mphOvercast
11:53 PM12.0 °F5.0 °F73 %30.25 in10.0 miSW (230°)8.1 mphOvercast
Hourly data recorded from KARB, located miles away from Ann Arbor, Michigan







STORIES FROM OUR PARTNERS